Meteopurmerend
purmerend
Purmerend - Baaienwijk



My webcam  My webcam


Onweer radar Meer informatie blitzortung!


Regen radar Meer informatie rain snow radar


Bezoek onze andere website:

CandyAppleRed WebdesignWebdesign Purmerend Candy Apple Red

MeteopurmerendBlog

Template documentation
and downloads



We konden geen weer-waarchuwingen ophalen. Ga rechtstreeks naar de Meteoalarm site : www.meteoalarm.eu en controleer daar .

15 daagse weersverwachting Droichead Nua (IE)

  • Overzicht
  • Per uur
  • 15 dagen
  • Extra
  • Vergelijk
  • Kaarten
  • Dagkaart
  • Meer »
  • Info
  • Statistieken
  • Directe link
    Temp 6h Neerslag Wind  
 06:08     20:56    Daglengte: 14:48 Vandaag
19:00
25°
 
2
 06:10     20:54    Daglengte: 14:44 Morgen
01:00
19°
 
2
07:00
16°
22.9 mm
1
13:00
20°
8.0 mm
3
19:00
19°
4.1 mm
3
 06:12     20:52    Daglengte: 14:40 Dinsdag 16 Aug
01:00
15°
3.8 mm
5
07:00
14°
 
6
13:00
17°
 
7
19:00
17°
 
8
 06:13     20:50    Daglengte: 14:37 Woensdag 17 Aug
01:00
13°
 
6
07:00
11°
 
4
13:00
18°
 
6
Locatie info
Region: Leinster
Latitude: 53.1819°N
Longitude: -6.7967°E
92 masl
Temp/Neerslag /Baro Onweer/Dauwpunt
    Temp Baro 1h Neerslag Dauwpunt Wind UV Bewolking  
 06:08     20:56    Daglengte: 14:48 Vandaag
19:00
25°
1004.7 hPa
48%
15.3°
2
Windvlaag: -1.8 m/s
76%
20:00
23°
1004.8 hPa
15%
15.5°
3
Windvlaag: -1.7 m/s
86%
21:00
22°
1005.0 hPa
70%
15.1°
2
Windvlaag: -1.5 m/s
86%
22:00
21°
1004.9 hPa
78%
15.9°
2
Windvlaag: -0.3 m/s
86%
23:00
20°
1004.6 hPa
82%
16.6°
2
Windvlaag: 0.3 m/s
86%
 06:10     20:54    Daglengte: 14:44 Morgen
00:00
20°
1004.3 hPa
82%
16.8°
2
Windvlaag: 0.5 m/s
83%
01:00
19°
1003.9 hPa
82%
17.1°
2
Windvlaag: 0.2 m/s
86%
02:00
18°
1003.8 hPa 3.2 mm
82%
16.8°
2
Windvlaag: 0.3 m/s
86%
03:00
18°
1003.4 hPa 3.4 mm
82%
16.2°
2
Windvlaag: 0.2 m/s
81%
04:00
18°
1003.1 hPa 4.2 mm
82%
15.6°
2
Windvlaag: -0.9 m/s
85% warningclass
05:00
17°
1002.7 hPa 4.2 mm
82%
15.4°
2
Windvlaag: -1.5 m/s
86%
06:00
16°
1002.6 hPa 3.7 mm
82%
15.3°
1
Windvlaag: -1.5 m/s
84%
07:00
16°
1002.5 hPa 4.1 mm
82%
15.3°
1
Windvlaag: -1.7 m/s
86%
08:00
16°
1002.8 hPa 4.1 mm
82%
15.3°
1
Windvlaag: -1.1 m/s
86%
09:00
17°
1003.0 hPa 3.9 mm
82%
15.1°
2
Windvlaag: 0.5 m/s
81%
10:00
17°
1003.2 hPa
82%
15.1°
2
Windvlaag: 0.1 m/s
75%
11:00
18°
1003.1 hPa
82%
15.2°
2
Windvlaag: -0.4 m/s
69%
12:00
19°
1003.2 hPa
82%
15.5°
3
Windvlaag: -0.8 m/s
68%
13:00
20°
1003.1 hPa
82%
16.5°
3
Windvlaag: -0.6 m/s
62%
14:00
21°
1003.2 hPa
79%
17.6°
3
Windvlaag: -0.9 m/s
70%
15:00
21°
1003.0 hPa
81%
17.4°
3
Windvlaag: -0.9 m/s
57%
16:00
21°
1002.8 hPa
82%
17.5°
3
Windvlaag: -1.8 m/s
49%
17:00
20°
1002.9 hPa
82%
16.7°
4
Windvlaag: -4.5 m/s
40%
18:00
20°
1003.0 hPa
82%
16.0°
3
Windvlaag: -4.3 m/s
57% warningclass
19:00
19°
1003.4 hPa 4.1 mm
82%
15.5°
3
Windvlaag: -4.4 m/s
73%
20:00
18°
1004.0 hPa 3.8 mm
77%
14.5°
4
Windvlaag: -7 m/s
68%
21:00
17°
1004.8 hPa
82%
14.2°
4
Windvlaag: -6.5 m/s
76%
22:00
17°
1005.4 hPa
82%
14.5°
4
Windvlaag: -5.4 m/s
80% warningclass
23:00
16°
1005.7 hPa
81%
14.8°
4
Windvlaag: -4.9 m/s
80%
 06:12     20:52    Daglengte: 14:40 Dinsdag 16 Aug
00:00
16°
1006.1 hPa
82%
14.7°
4
Windvlaag: -4.5 m/s
67%
01:00
15°
1006.2 hPa
67%
13.8°
5
Windvlaag: -4.8 m/s
85%
02:00
15°
1006.3 hPa
26%
13.6°
5
Windvlaag: -5.3 m/s
86%
03:00
14°
1006.4 hPa
25%
13.3°
5
Windvlaag: -5.6 m/s
84%
04:00
14°
1006.6 hPa
18%
13.3°
5
Windvlaag: -5.3 m/s
80%
05:00
14°
1006.7 hPa
14%
13.2°
6
Windvlaag: -5.1 m/s
71%
06:00
14°
1007.0 hPa
18%
13.0°
5
Windvlaag: -5.8 m/s
72%
07:00
14°
1007.6 hPa
24%
13.0°
6
Windvlaag: -5.8 m/s
75%
08:00
14°
1008.0 hPa
15%
12.9°
6
Windvlaag: -5.9 m/s
58%
09:00
14°
1008.5 hPa
14%
13.2°
6
Windvlaag: -5.3 m/s
51%
10:00
15°
1009.0 hPa
15%
13.3°
7
Windvlaag: -5.6 m/s
54%
11:00
16°
1009.2 hPa
49%
13.3°
7
Windvlaag: -6.2 m/s
75%
12:00
17°
1009.2 hPa
14%
13.1°
7
Windvlaag: -6.5 m/s
70%
13:00
17°
1009.4 hPa
17%
13.3°
7
Windvlaag: -6.5 m/s
56%
14:00
18°
1009.7 hPa
17%
13.7°
7
Windvlaag: -7.4 m/s
38%
15:00
19°
1009.9 hPa
16%
14.0°
7
Windvlaag: -7.9 m/s
36%
16:00
18°
1010.7 hPa
22%
9.8°
8
Windvlaag: -8.6 m/s
82%
17:00
18°
1010.9 hPa
22%
9.3°
8
Windvlaag: -9 m/s
62%
18:00
18°
1011.3 hPa
23%
8.5°
8
Windvlaag: -9.7 m/s
37%
19:00
17°
1011.8 hPa
31%
7.7°
8
Windvlaag: -9.4 m/s
54%
20:00
16°
1012.4 hPa
28%
8.4°
7
Windvlaag: -9.4 m/s
55%
21:00
15°
1013.5 hPa
27%
10.4°
7
Windvlaag: -9.4 m/s
65%
22:00
14°
1014.1 hPa
26%
10.9°
7
Windvlaag: -8.8 m/s
62%
23:00
13°
1014.7 hPa
27%
10.6°
7
Windvlaag: -8.5 m/s
77%
 06:13     20:50    Daglengte: 14:37 Woensdag 17 Aug
00:00
13°
1015.1 hPa
75%
9.7°
6
Windvlaag: -9.4 m/s
66%
01:00
13°
1015.3 hPa
39%
9.3°
6
Windvlaag: -7.8 m/s
67%
02:00
12°
1015.5 hPa
24%
9.5°
6
Windvlaag: -7.6 m/s
67%
03:00
12°
1015.5 hPa
25%
8.7°
6
Windvlaag: -7.2 m/s
47%
04:00
12°
1015.7 hPa
24%
8.2°
5
Windvlaag: -6.2 m/s
45%
05:00
11°
1015.8 hPa
23%
8.9°
5
Windvlaag: -5.4 m/s
58%
06:00
11°
1016.2 hPa
29%
9.8°
5
Windvlaag: -4.3 m/s
58%
07:00
11°
1016.8 hPa
32%
10.2°
4
Windvlaag: -3.6 m/s
58%
08:00
12°
1017.2 hPa
29%
9.0°
4
Windvlaag: -3.3 m/s
39%
09:00
13°
1017.5 hPa
27%
8.3°
5
Windvlaag: -3.7 m/s
17%
10:00
15°
1017.7 hPa
21%
7.2°
5
Windvlaag: -3.8 m/s
33%
11:00
16°
1016.7 hPa
21%
7.0°
6
Windvlaag: 6.1 m/s
19%
12:00
17°
1017.0 hPa
21%
6.3°
6
Windvlaag: 5.2 m/s
72%
13:00
18°
1017.1 hPa
21%
6.0°
6
Windvlaag: 4.4 m/s
32%
14:00
19°
1016.9 hPa
21%
6.1°
5
Windvlaag: 3.7 m/s
4%
15:00
19°
1016.8 hPa
21%
5.5°
5
Windvlaag: 3 m/s
10%
16:00
19°
1016.5 hPa
21%
4.9°
4
Windvlaag: 2.6 m/s
9%
17:00
19°
1016.3 hPa
21%
5.0°
4
Windvlaag: 2.7 m/s
13%
18:00
19°
1016.3 hPa
21%
4.4°
3
Windvlaag: 2.4 m/s
26%
Temp/Neerslag /Baro Onweer/Dauwpunt
    Temp Baro Neerslag Dauwpunt Wind Bewolking  
 06:08     20:56    Daglengte: 14:48 Vandaag
19:00
25°
1004.7 hPa   15.3°
2
76%
22:00
21°
1004.9 hPa   15.9°
2
86%
 06:10     20:54    Daglengte: 14:44 Morgen
01:00
19°
1003.9 hPa   17.1°
2
86%
04:00
18°
1003.1 hPa 10.9 mm 15.6°
2
85% warningclass
07:00
16°
1002.5 hPa 12.0 mm 15.3°
1
86%
10:00
17°
1003.2 hPa 8.0 mm 15.1°
2
75%
13:00
20°
1003.1 hPa   16.5°
3
62%
16:00
21°
1002.8 hPa   17.5°
3
49%
19:00
19°
1003.4 hPa 4.1 mm 15.5°
3
73%
22:00
17°
1005.4 hPa 3.8 mm 14.5°
4
80% warningclass
 06:12     20:52    Daglengte: 14:40 Dinsdag 16 Aug
01:00
15°
1006.2 hPa   13.8°
5
85%
04:00
14°
1006.6 hPa   13.3°
5
80%
07:00
14°
1007.6 hPa   13.0°
6
75%
10:00
15°
1009.0 hPa   13.3°
7
54%
13:00
17°
1009.4 hPa   13.3°
7
56%
16:00
18°
1010.7 hPa   9.8°
8
82%
19:00
17°
1011.8 hPa   7.7°
8
54%
22:00
14°
1014.1 hPa   10.9°
7
62%
 06:13     20:50    Daglengte: 14:37 Woensdag 17 Aug
01:00
13°
1015.3 hPa   9.3°
6
67%
04:00
12°
1015.7 hPa   8.2°
5
45%
07:00
11°
1016.8 hPa   10.2°
4
58%
10:00
15°
1017.7 hPa   7.2°
5
33%
13:00
18°
1017.1 hPa   6.0°
6
32%
16:00
19°
1016.5 hPa   4.9°
4
9%
19:00
18°
1016.3 hPa   4.2°
2
71%
22:00
13°
1018.6 hPa 23.7 mm 11.0°
1
1%
 06:15     20:48    Daglengte: 14:33 Donderdag 18 Aug
01:00
12°
1017.9 hPa 23.7 mm 10.0°
3
1%
04:00
13°
1016.3 hPa 23.8 mm 10.4°
3
1%
07:00
13°
1015.9 hPa 24.5 mm 11.5°
3
1%
10:00
14°
1016.0 hPa 24.9 mm 11.9°
4
1%
13:00
20°
1015.3 hPa 25.0 mm 13.8°
4
1%
16:00
23°
1014.0 hPa 25.1 mm 10.5°
5
1%
19:00
19°
1014.0 hPa 25.1 mm 11.3°
5
0%
22:00
12°
1015.4 hPa 25.1 mm 10.0°
2
0%
 06:17     20:45    Daglengte: 14:28 Vrijdag 19 Aug
01:00
11°
1015.2 hPa 25.1 mm 9.8°
3
0%
04:00
11°
1014.4 hPa 25.1 mm 9.8°
3
1%
07:00
10°
1014.9 hPa 25.1 mm 9.1°
3
1%
10:00
15°
1014.6 hPa 25.1 mm 11.4°
5
1%
13:00
19°
1014.0 hPa 25.3 mm 12.3°
7
1%
16:00
19°
1014.0 hPa 25.9 mm 12.1°
7
1%
19:00
17°
1014.6 hPa 26.0 mm 8.6°
6
1%
22:00
13°
1015.8 hPa 26.0 mm 8.8°
3
1%
 06:19     20:43    Daglengte: 14:24 Zaterdag 20 Aug
01:00
10°
1016.3 hPa 26.1 mm 9.5°
3
1%
04:00
11°
1016.6 hPa 26.2 mm 9.3°
3
0%
07:00
10°
1017.6 hPa 26.4 mm 9.4°
3
0%
10:00
15°
1019.0 hPa 26.6 mm 10.8°
6
0%
13:00
17°
1019.5 hPa 26.8 mm 8.1°
6
0%
19:00
17°
1021.3 hPa 26.8 mm 9.2°
5
1%
22:00
14°
1022.6 hPa 26.8 mm 10.4°
3
1%
 06:20     20:41    Daglengte: 14:21 Zondag 21 Aug
01:00
13°
1022.8 hPa 26.8 mm 12.5°
3
1%
04:00
12°
1023.0 hPa 26.8 mm 11.4°
3
1%
07:00
11°
1022.9 hPa 26.8 mm 10.6°
3
1%
10:00
13°
1022.5 hPa 27.1 mm 12.3°
4
1%
13:00
15°
1021.8 hPa 27.9 mm 13.9°
4
1%
16:00
15°
1020.7 hPa 28.7 mm 14.3°
4
1%
19:00
16°
1019.0 hPa 57.6 mm 14.5°
4
1%
 06:22     20:39    Daglengte: 14:17 Maandag 22 Aug
01:00
18°
1015.6 hPa 57.8 mm 16.0°
6
1%
07:00
17°
1012.1 hPa 58.0 mm 15.3°
7
1%
13:00
21°
1011.9 hPa 59.4 mm 14.1°
7
1%
19:00
18°
1012.3 hPa 59.8 mm 13.2°
5
1%
 06:24     20:36    Daglengte: 14:12 Dinsdag 23 Aug
01:00
15°
1013.8 hPa 59.9 mm 14.0°
4
1%
07:00
Voelt als: 9.2°
1016.8 hPa 60.6 mm 8.6°
1
1%
13:00
16°
1019.6 hPa 60.6 mm 8.4°
4
1%
19:00
17°
1020.7 hPa 60.6 mm 10.1°
2
1%
 06:25     20:34    Daglengte: 14:09 Woensdag 24 Aug
01:00
11°
1022.6 hPa 60.6 mm 8.7°
1
0%
07:00
11°
1022.4 hPa 60.6 mm 9.2°
2
1%
13:00
20°
1017.5 hPa 0.7 mm 13.3°
1
67%
19:00
18°
1017.8 hPa 0.7 mm 13.4°
1
71%
 06:27     20:32    Daglengte: 14:05 Donderdag 25 Aug
01:00
13°
1019.2 hPa 0.4 mm 11.3°
0
62%
07:00
12°
1019.5 hPa 0.1 mm 10.9°
0
53%
13:00
19°
1020.1 hPa 0.4 mm 13.1°
1
62%
19:00
19°
1020.0 hPa 1.2 mm 13.7°
1
57%
 06:29     20:30    Daglengte: 14:01 Vrijdag 26 Aug
01:00
13°
1021.4 hPa 0.2 mm 11.4°
1
48%
07:00
12°
1021.7 hPa 0.1 mm 10.7°
1
57%
13:00
20°
1022.2 hPa 0.2 mm 12.5°
1
63%
19:00
18°
1021.4 hPa 0.4 mm 13.3°
1
61%
 06:31     20:27    Daglengte: 13:56 Zaterdag 27 Aug
01:00
12°
1022.1 hPa 0.1 mm 11.0°
1
47%
07:00
12°
1021.5 hPa 0.1 mm 10.4°
0
47%
13:00
19°
1021.3 hPa 0.1 mm 12.5°
1
56%
19:00
18°
1020.1 hPa 0.5 mm 13.2°
0
67%
 06:32     20:25    Daglengte: 13:53 Zondag 28 Aug
01:00
13°
1020.9 hPa 0.3 mm 11.2°
1
52%
07:00
12°
1020.5 hPa   10.6°
1
54%
13:00
19°
1021.0 hPa 0.3 mm 12.4°
1
53%
19:00
18°
1020.6 hPa 0.3 mm 13.2°
1
65%
 06:34     20:23    Daglengte: 13:49 Maandag 29 Aug
01:00
12°
1021.5 hPa   11.2°
0
60%
07:00
11°
1021.1 hPa 0.2 mm 10.5°
0
51%
13:00
19°
1021.3 hPa 0.1 mm 12.6°
1
55%
19:00
18°
1020.6 hPa 0.4 mm 12.8°
0
54%
  CAPE Lifted Index Hail Supercell Tornado SRH 3km CL BTM PRES CL TOP PRES Swiss DWD icon SMHI TS
 06:08     20:56    Daglengte: 14:48 Vandaag
19:00 892 J/kg -3.9 K 0 % 0 % 0 % 0 m²/s² 0 0 -3.51 3
20:00 540 J/kg -2.4 K 0 % 0 % 0 % 0 m²/s² 0 0 -2.13 3
21:00 0 J/kg -2.3 K 0 % 0 % 0 % 0 m²/s² 0 0 -2.3 3
22:00 0 J/kg -1.2 K 0 % 0 % 0 % 0 m²/s² 0 0 -0.63 61
23:00 55 J/kg -0.8 K 0 % 0 % 0 % 0 m²/s² 0 0 -0.59 3
 06:10     20:54    Daglengte: 14:44 Morgen
00:00 0 J/kg -0.8 K 0 % 0 % 0 % 0 m²/s² 0 0 -0.5 3
01:00 0 J/kg -1.8 K 0 % 0 % 0 % 0 m²/s² 0 0 -1.8 61
02:00 0 J/kg -0.9 K 0 % 0 % 0 % 0 m²/s² 0 0 -0.78 80
03:00 7 J/kg -1.2 K 0 % 0 % 0 % 0 m²/s² 0 0 -1.17 80
04:00 0 J/kg -2.1 K 0 % 0 % 0 % 0 m²/s² 0 0 -1.62 95
05:00 57 J/kg -1.9 K 0 % 0 % 0 % 0 m²/s² 0 0 -1.78 81
06:00 61 J/kg -1.3 K 0 % 0 % 0 % 0 m²/s² 0 0 -0.88 61
07:00 95 J/kg -0.5 K 0 % 0 % 0 % 0 m²/s² 0 0 -0.41 80
08:00 83 J/kg 0.2 K 0 % 0 % 0 % 0 m²/s² 0 0 0.38 61
09:00 152 J/kg -0.3 K 0 % 0 % 0 % 0 m²/s² 0 0 0.09 80
10:00 257 J/kg -1.3 K 0 % 0 % 0 % 0 m²/s² 0 0 -0.73 80
11:00 303 J/kg -1.6 K 0 % 0 % 0 % 0 m²/s² 0 0 -1.18 61
12:00 288 J/kg -1.6 K 0 % 0 % 0 % 0 m²/s² 0 0 -0.43 61
13:00 439 J/kg -2.3 K 0 % 0 % 0 % 0 m²/s² 0 0 -1.07 3
14:00 680 J/kg -3.0 K 0 % 0 % 0 % 0 m²/s² 0 0 -1.92 80
15:00 422 J/kg -2.2 K 0 % 0 % 0 % 0 m²/s² 0 0 -1.21 80
16:00 603 J/kg -2.4 K 0 % 0 % 0 % 0 m²/s² 0 0 -1.47 80
17:00 936 J/kg -3.0 K 0 % 0 % 0 % 0 m²/s² 0 0 -1.8 80
18:00 747 J/kg -2.7 K 0 % 0 % 0 % 0 m²/s² 0 0 -1.62 95
19:00 586 J/kg -2.2 K 0 % 0 % 0 % 0 m²/s² 0 0 -1.36 80
20:00 275 J/kg -1.1 K 0 % 0 % 0 % 0 m²/s² 0 0 -0.17 3
21:00 12 J/kg 0.5 K 0 % 0 % 0 % 0 m²/s² 0 0 1.58 80
22:00 0 J/kg 2.1 K 0 % 0 % 0 % 0 m²/s² 0 0 3.6 95
23:00 0 J/kg 3.4 K 0 % 0 % 0 % 0 m²/s² 0 0 4.81 80
 06:12     20:52    Daglengte: 14:40 Dinsdag 16 Aug
00:00 0 J/kg 4.3 K 0 % 0 % 0 % 0 m²/s² 0 0 5.71 3
01:00 0 J/kg 4.5 K 0 % 0 % 0 % 0 m²/s² 0 0 6.36 3
02:00 0 J/kg 4.9 K 0 % 0 % 0 % 0 m²/s² 0 0 7.09 3
03:00 0 J/kg 4.7 K 0 % 0 % 0 % 0 m²/s² 0 0 6.83 3
04:00 1 J/kg 4.5 K 0 % 0 % 0 % 0 m²/s² 0 0 6.57 3
05:00 1 J/kg 4.7 K 0 % 0 % 0 % 0 m²/s² 0 0 6.68 3
06:00 4 J/kg 4.6 K 0 % 0 % 0 % 0 m²/s² 0 0 6.52 3
07:00 7 J/kg 4.5 K 0 % 0 % 0 % 0 m²/s² 0 0 6.9 3
08:00 11 J/kg 4.9 K 0 % 0 % 0 % 0 m²/s² 0 0 8.44 3
09:00 11 J/kg 5.1 K 0 % 0 % 0 % 0 m²/s² 0 0 10.74 3
10:00 11 J/kg 5.4 K 0 % 0 % 0 % 0 m²/s² 0 0 13.98 3
11:00 10 J/kg 5.5 K 0 % 0 % 0 % 0 m²/s² 0 0 15.25 3
12:00 8 J/kg 5.8 K 0 % 0 % 0 % 0 m²/s² 0 0 16.06 3
13:00 6 J/kg 5.5 K 0 % 0 % 0 % 0 m²/s² 0 0 15.76 3
14:00 8 J/kg 6.0 K 0 % 0 % 0 % 0 m²/s² 0 0 15.33 3
15:00 6 J/kg 5.5 K 0 % 0 % 0 % 0 m²/s² 0 0 14.41 3
16:00 15 J/kg 5.3 K 0 % 0 % 0 % 0 m²/s² 0 0 14.21 3
17:00 14 J/kg 5.5 K 0 % 0 % 0 % 0 m²/s² 0 0 14.05 2
18:00 3 J/kg 6.0 K 0 % 0 % 0 % 0 m²/s² 0 0 14.55 2
19:00 1 J/kg 7.2 K 0 % 0 % 0 % 0 m²/s² 0 0 15.42 3
20:00 0 J/kg 7.8 K 0 % 0 % 0 % 0 m²/s² 0 0 16.02 3
21:00 0 J/kg 8.8 K 0 % 0 % 0 % 0 m²/s² 0 0 16.72 3
22:00 0 J/kg 8.1 K 0 % 0 % 0 % 0 m²/s² 0 0 15.72 3
23:00 0 J/kg 7.0 K 0 % 0 % 0 % 0 m²/s² 0 0 14.35 3
 06:13     20:50    Daglengte: 14:37 Woensdag 17 Aug
00:00 0 J/kg 6.6 K 0 % 0 % 0 % 0 m²/s² 0 0 13.71 3
01:00 0 J/kg 6.6 K 0 % 0 % 0 % 0 m²/s² 0 0 13.95 3
02:00 0 J/kg 7.0 K 0 % 0 % 0 % 0 m²/s² 0 0 15.19 3
03:00 0 J/kg 7.5 K 0 % 0 % 0 % 0 m²/s² 0 0 16.41 3
04:00 0 J/kg 8.2 K 0 % 0 % 0 % 0 m²/s² 0 0 17.5 3
05:00 0 J/kg 9.2 K 0 % 0 % 0 % 0 m²/s² 0 0 18.53 3
06:00 0 J/kg 10.0 K 0 % 0 % 0 % 0 m²/s² 0 0 19.33 3
07:00 0 J/kg 11.1 K 0 % 0 % 0 % 0 m²/s² 0 0 20.43 3
08:00 0 J/kg 13.3 K 0 % 0 % 0 % 0 m²/s² 0 0 22.24 3
09:00 0 J/kg 14.8 K 0 % 0 % 0 % 0 m²/s² 0 0 23.77 3
10:00 0 J/kg 15.0 K 0 % 0 % 0 % 0 m²/s² 0 0 24 2
11:00 0 J/kg 15.0 K 0 % 0 % 0 % 0 m²/s² 0 0 24.03 2
12:00 0 J/kg 14.9 K 0 % 0 % 0 % 0 m²/s² 0 0 23.93 3
13:00 0 J/kg 14.5 K 0 % 0 % 0 % 0 m²/s² 0 0 23.53 3
14:00 0 J/kg 14.3 K 0 % 0 % 0 % 0 m²/s² 0 0 22.94 2
15:00 0 J/kg 14.0 K 0 % 0 % 0 % 0 m²/s² 0 0 22.34 2
16:00 0 J/kg 14.0 K 0 % 0 % 0 % 0 m²/s² 0 0 22.07 2
17:00 0 J/kg 14.0 K 0 % 0 % 0 % 0 m²/s² 0 0 21.23 1
18:00 0 J/kg 14.2 K 0 % 0 % 0 % 0 m²/s² 0 0 20.41 2
Temp Baro Wind Neerslag
  EWN Forecast EWN WRFDA DWD ICON FMI HIRLAM MET Norway GFS
 06:08     20:56    Daglengte: 14:48 Vandaag
19:00 24.7° 1004.7 hPa 2.2 m/s 0.0 mm 24.1° 1004.2 hPa 2.4 m/s 0.7 mm 23.1° 1004.6 hPa 3.6 m/s -2.0 mm 25.3° 1005.2 hPa 1.2 m/s 0.0 mm 24.2° 1004.1 hPa 3.5 m/s
22:00 20.7° 1004.9 hPa 2.0 m/s 0.0 mm 18.1° 1004.9 hPa 5.2 m/s 17.4 mm 18.6° 1004.9 hPa 1.9 m/s 0.5 mm 22.1° 1005.1 hPa 1.6 m/s 0.0 mm 15.8° 1005.6 hPa 8.2 m/s
 06:10     20:54    Daglengte: 14:44 Morgen
01:00 19.1° 1003.9 hPa 1.8 m/s 0.0 mm 16.5° 1004.0 hPa 4.0 m/s 38.5 mm 17.1° 1003.6 hPa 1.6 m/s 0.2 mm 20.4° 1003.9 hPa 1.0 m/s 0.0 mm 15.3° 1003.9 hPa 3.3 m/s
04:00 17.6° 1003.1 hPa 1.7 m/s 10.9 mm 17.1° 1001.4 hPa 4.5 m/s 45.8 mm 16.1° 1003.8 hPa 1.0 m/s 2.5 mm 18.9° 1002.7 hPa 1.4 m/s 0.0 mm 15.6° 1002.4 hPa 1.4 m/s
07:00 16.3° 1002.5 hPa 1.5 m/s 12.0 mm 16.0° 1002.6 hPa 3.3 m/s 48.2 mm 15.4° 1002.5 hPa 0.8 m/s 3.9 mm 18.1° 1002.2 hPa 1.1 m/s 0.0 mm 15.5° 1002.8 hPa 1.0 m/s
10:00 17.2° 1003.2 hPa 2.2 m/s 8.0 mm 18.5° 1002.7 hPa 3.4 m/s 53.2 mm 16.5° 1003.6 hPa 2.1 m/s 1.0 mm 19.7° 1001.9 hPa 1.3 m/s 0.0 mm 17.2° 1003.4 hPa 2.0 m/s
13:00 19.8° 1003.1 hPa 2.5 m/s 0.0 mm 20.1° 1002.8 hPa 4.1 m/s 53.3 mm 18.8° 1003.3 hPa 1.7 m/s 0.6 mm 21.2° 1001.6 hPa 2.4 m/s 0.0 mm 19.0° 1003.5 hPa 3.8 m/s
16:00 20.8° 1002.8 hPa 2.7 m/s 0.0 mm 19.6° 1002.4 hPa 4.4 m/s 53.5 mm 19.7° 1003.5 hPa 2.3 m/s 1.0 mm 20.9° 1001.2 hPa 2.4 m/s 0.0 mm 19.5° 1003.1 hPa 2.8 m/s
19:00 19.4° 1003.4 hPa 3.4 m/s 4.1 mm 19.4° 1003.4 hPa 4.8 m/s 54.1 mm 18.2° 1003.9 hPa 3.1 m/s 2.7 mm 20.1° 1000.7 hPa 1.8 m/s 0.0 mm 17.6° 1004.1 hPa 2.9 m/s
22:00 16.6° 1005.4 hPa 4.0 m/s 3.8 mm 14.9° 1005.5 hPa 6.4 m/s 55.3 mm 16.6° 1005.9 hPa 4.0 m/s 1.7 mm 18.5° 1002.0 hPa 1.2 m/s 0.0 mm 15.0° 1006.2 hPa 3.5 m/s
 06:12     20:52    Daglengte: 14:40 Dinsdag 16 Aug
01:00 15.2° 1006.2 hPa 4.9 m/s 0.0 mm 11.9° 1006.1 hPa 5.0 m/s 55.3 mm 15.2° 1006.7 hPa 4.8 m/s 0.3 mm 17.6° 1002.2 hPa 4.7 m/s 0.0 mm 12.5° 1007.5 hPa 3.8 m/s
04:00 14.4° 1006.6 hPa 5.0 m/s 0.0 mm 13.0° 1006.1 hPa 4.8 m/s 55.4 mm 14.4° 1007.4 hPa 4.8 m/s 0.0 mm 16.1° 1001.6 hPa 4.5 m/s 0.0 mm 11.6° 1007.7 hPa 4.3 m/s
07:00 14.0° 1007.6 hPa 5.5 m/s 0.0 mm 13.1° 1007.3 hPa 6.2 m/s 55.6 mm 13.8° 1008.4 hPa 5.5 m/s 0.0 mm 16.2° 1002.2 hPa 4.0 m/s 0.0 mm 12.2° 1008.9 hPa 4.5 m/s
10:00 15.1° 1009.0 hPa 6.6 m/s 0.0 mm 14.6° 1008.1 hPa 8.5 m/s 55.9 mm 14.7° 1009.9 hPa 6.9 m/s 0.0 mm 18.1° 1003.6 hPa 5.2 m/s 0.0 mm 14.0° 1009.9 hPa 5.9 m/s
13:00 17.4° 1009.4 hPa 6.8 m/s 0.0 mm 14.7° 1009.4 hPa 8.2 m/s 55.9 mm 16.5° 1010.2 hPa 6.6 m/s 0.0 mm 19.9° 1004.3 hPa 6.5 m/s 0.0 mm 15.5° 1010.8 hPa 6.3 m/s
16:00 18.2° 1010.7 hPa 7.8 m/s 0.0 mm 17.9° 1010.0 hPa 8.0 m/s 55.9 mm 17.6° 1011.0 hPa 7.2 m/s 0.0 mm 16.1° 1011.4 hPa 6.1 m/s
19:00 16.7° 1011.8 hPa 8.0 m/s 0.0 mm 16.5° 1011.4 hPa 7.8 m/s 55.9 mm 16.5° 1011.8 hPa 7.7 m/s 0.0 mm 15.4° 1012.9 hPa 5.8 m/s
22:00 13.9° 1014.1 hPa 7.1 m/s 0.0 mm 10.1° 1014.0 hPa 4.0 m/s 55.9 mm 14.2° 1013.7 hPa 7.3 m/s 0.0 mm 13.6° 1015.5 hPa 5.8 m/s
 06:13     20:50    Daglengte: 14:37 Woensdag 17 Aug
01:00 12.6° 1015.3 hPa 6.1 m/s 0.0 mm 9.9° 1015.1 hPa 5.6 m/s 55.9 mm 12.9° 1014.6 hPa 5.9 m/s 0.0 mm 11.1° 1017.2 hPa 4.8 m/s
04:00 11.7° 1015.7 hPa 5.5 m/s 0.0 mm 10.1° 1015.6 hPa 4.5 m/s 55.9 mm 12.5° 1014.5 hPa 5.6 m/s 0.0 mm 9.3° 1017.7 hPa 3.2 m/s
07:00 11.0° 1016.8 hPa 4.4 m/s 0.0 mm 7.0° 1016.6 hPa 3.9 m/s 55.9 mm 13.1° 1015.8 hPa 5.8 m/s 0.0 mm 9.7° 1018.5 hPa 2.7 m/s
10:00 14.6° 1017.7 hPa 4.8 m/s 0.0 mm 12.7° 1017.7 hPa 4.7 m/s 55.9 mm 15.7° 1016.4 hPa 6.4 m/s 0.0 mm 13.9° 1019.7 hPa 3.1 m/s
13:00 17.8° 1017.1 hPa 5.6 m/s 0.0 mm 16.0° 1017.9 hPa 3.7 m/s 55.9 mm 18.2° 1016.9 hPa 6.1 m/s 0.0 mm 16.7° 1019.6 hPa 1.6 m/s
16:00 19.3° 1016.5 hPa 4.1 m/s 0.0 mm 17.8° 1016.8 hPa 2.5 m/s 55.9 mm 19.7° 1016.4 hPa 4.5 m/s 0.0 mm 17.3° 1019.0 hPa 1.9 m/s
19:00 18.5° 1016.3 hPa 2.5 m/s 0.0 mm 17.6° 1016.8 hPa 1.4 m/s 55.9 mm 18.7° 1016.1 hPa 2.8 m/s 0.0 mm 16.9° 1018.8 hPa 1.2 m/s
22:00 13.4° 1018.6 hPa 1.3 m/s 23.7 mm 13.4° 1018.6 hPa 1.3 m/s 23.7 mm
 06:15     20:48    Daglengte: 14:33 Donderdag 18 Aug
01:00 12.2° 1017.9 hPa 2.5 m/s 23.7 mm 12.2° 1017.9 hPa 2.5 m/s 23.7 mm
04:00 13.0° 1016.3 hPa 2.5 m/s 23.8 mm 13.0° 1016.3 hPa 2.5 m/s 23.8 mm
07:00 13.4° 1015.9 hPa 3.0 m/s 24.5 mm 13.4° 1015.9 hPa 3.0 m/s 24.5 mm
10:00 14.4° 1016.0 hPa 3.8 m/s 24.9 mm 14.4° 1016.0 hPa 3.8 m/s 24.9 mm
13:00 19.6° 1015.3 hPa 3.8 m/s 25.0 mm 19.6° 1015.3 hPa 3.8 m/s 25.0 mm
16:00 22.8° 1014.0 hPa 5.3 m/s 25.1 mm 22.8° 1013.9 hPa 5.3 m/s 25.1 mm
19:00 19.5° 1014.0 hPa 4.6 m/s 25.1 mm 19.5° 1014.0 hPa 4.6 m/s 25.1 mm
22:00 12.1° 1015.4 hPa 2.4 m/s 25.1 mm 12.1° 1015.4 hPa 2.4 m/s 25.1 mm
 06:17     20:45    Daglengte: 14:28 Vrijdag 19 Aug
01:00 10.6° 1015.2 hPa 2.8 m/s 25.1 mm 10.6° 1015.2 hPa 2.8 m/s 25.1 mm
04:00 10.7° 1014.4 hPa 2.6 m/s 25.1 mm 10.7° 1014.4 hPa 2.6 m/s 25.1 mm
07:00 10.4° 1014.9 hPa 3.0 m/s 25.1 mm 10.4° 1014.9 hPa 3.0 m/s 25.1 mm
10:00 15.3° 1014.6 hPa 4.9 m/s 25.1 mm 15.3° 1014.6 hPa 4.9 m/s 25.1 mm
13:00 19.0° 1014.0 hPa 7.1 m/s 25.3 mm 19.0° 1014.0 hPa 7.1 m/s 25.3 mm
16:00 19.0° 1014.0 hPa 7.1 m/s 25.9 mm 19.0° 1014.0 hPa 7.1 m/s 25.9 mm
19:00 16.9° 1014.6 hPa 5.9 m/s 26.0 mm 16.9° 1014.6 hPa 5.9 m/s 26.0 mm
22:00 12.5° 1015.8 hPa 3.1 m/s 26.0 mm 12.5° 1015.8 hPa 3.1 m/s 26.0 mm
 06:19     20:43    Daglengte: 14:24 Zaterdag 20 Aug
01:00 10.4° 1016.3 hPa 3.4 m/s 26.1 mm 10.4° 1016.3 hPa 3.4 m/s 26.1 mm
04:00 10.7° 1016.6 hPa 3.3 m/s 26.2 mm 10.7° 1016.6 hPa 3.3 m/s 26.2 mm
07:00 10.0° 1017.6 hPa 3.3 m/s 26.4 mm 10.0° 1017.6 hPa 3.3 m/s 26.4 mm
10:00 14.9° 1019.0 hPa 5.6 m/s 26.6 mm 14.9° 1019.0 hPa 5.6 m/s 26.6 mm
13:00 17.5° 1019.5 hPa 5.9 m/s 26.8 mm 17.5° 1019.5 hPa 5.9 m/s 26.8 mm
19:00 17.2° 1021.3 hPa 4.6 m/s 26.8 mm 17.2° 1021.3 hPa 4.6 m/s 26.8 mm
22:00 14.3° 1022.6 hPa 2.8 m/s 26.8 mm 14.3° 1022.6 hPa 2.8 m/s 26.8 mm
 06:20     20:41    Daglengte: 14:21 Zondag 21 Aug
01:00 13.3° 1022.8 hPa 3.2 m/s 26.8 mm 13.3° 1022.8 hPa 3.2 m/s 26.8 mm
04:00 11.6° 1023.0 hPa 2.7 m/s 26.8 mm 11.6° 1023.0 hPa 2.7 m/s 26.8 mm
07:00 10.9° 1022.9 hPa 2.8 m/s 26.8 mm 10.9° 1022.9 hPa 2.8 m/s 26.8 mm
10:00 13.4° 1022.5 hPa 3.8 m/s 27.1 mm 13.4° 1022.5 hPa 3.8 m/s 27.1 mm
13:00 14.7° 1021.8 hPa 4.4 m/s 27.9 mm 14.7° 1021.8 hPa 4.4 m/s 27.9 mm
16:00 14.9° 1020.7 hPa 4.2 m/s 28.7 mm 14.9° 1020.7 hPa 4.3 m/s 28.7 mm
19:00 16.2° 1019.0 hPa 3.8 m/s 28.9 mm 16.2° 1019.0 hPa 3.8 m/s 28.9 mm
 06:22     20:39    Daglengte: 14:17 Maandag 22 Aug
01:00 17.6° 1015.6 hPa 5.7 m/s 28.9 mm 17.6° 1015.6 hPa 5.7 m/s 28.9 mm
07:00 17.4° 1012.1 hPa 6.6 m/s 29.1 mm 17.4° 1012.1 hPa 6.6 m/s 29.1 mm
13:00 20.8° 1011.9 hPa 7.4 m/s 29.9 mm 20.8° 1011.9 hPa 7.4 m/s 29.9 mm
19:00 18.2° 1012.3 hPa 5.4 m/s 29.9 mm 18.2° 1012.3 hPa 5.4 m/s 29.9 mm
 06:24     20:36    Daglengte: 14:12 Dinsdag 23 Aug
01:00 14.5° 1013.8 hPa 4.1 m/s 30.1 mm 14.5° 1013.8 hPa 4.1 m/s 30.1 mm
07:00 9.5° 1016.8 hPa 1.4 m/s 30.3 mm 9.5° 1016.8 hPa 1.4 m/s 30.3 mm
13:00 16.1° 1019.6 hPa 3.6 m/s 30.3 mm 16.1° 1019.6 hPa 3.6 m/s 30.3 mm
19:00 17.1° 1020.7 hPa 1.9 m/s 30.3 mm 17.1° 1020.7 hPa 1.9 m/s 30.3 mm
 06:25     20:34    Daglengte: 14:09 Woensdag 24 Aug
01:00 10.6° 1022.6 hPa 1.5 m/s 30.3 mm 10.6° 1022.6 hPa 1.5 m/s 30.3 mm
07:00 10.8° 1022.4 hPa 2.0 m/s 30.3 mm 10.8° 1022.4 hPa 2.0 m/s 30.3 mm
13:00 19.5° 1017.5 hPa 1.4 m/s 0.7 mm
19:00 18.5° 1017.8 hPa 0.8 m/s 0.7 mm
 06:27     20:32    Daglengte: 14:05 Donderdag 25 Aug
01:00 12.9° 1019.2 hPa 0.4 m/s 0.4 mm
07:00 11.8° 1019.5 hPa 0.2 m/s 0.1 mm
13:00 19.5° 1020.1 hPa 0.5 m/s 0.4 mm
19:00 18.6° 1020.0 hPa 1.0 m/s 1.2 mm
 06:29     20:30    Daglengte: 14:01 Vrijdag 26 Aug
01:00 12.5° 1021.4 hPa 0.6 m/s 0.2 mm
07:00 11.6° 1021.7 hPa 0.6 m/s 0.1 mm
13:00 19.6° 1022.2 hPa 0.6 m/s 0.2 mm
19:00 18.4° 1021.4 hPa 0.9 m/s 0.4 mm
 06:31     20:27    Daglengte: 13:56 Zaterdag 27 Aug
01:00 12.4° 1022.1 hPa 0.7 m/s 0.1 mm
07:00 11.5° 1021.5 hPa 0.3 m/s 0.1 mm
13:00 19.3° 1021.3 hPa 0.5 m/s 0.1 mm
19:00 18.1° 1020.1 hPa 0.4 m/s 0.5 mm
 06:32     20:25    Daglengte: 13:53 Zondag 28 Aug
01:00 12.5° 1020.9 hPa 0.6 m/s 0.3 mm
07:00 11.5° 1020.5 hPa 0.6 m/s 0.0 mm
13:00 19.3° 1021.0 hPa 1.1 m/s 0.3 mm
19:00 18.0° 1020.6 hPa 0.8 m/s 0.3 mm
 06:34     20:23    Daglengte: 13:49 Maandag 29 Aug
01:00 12.4° 1021.5 hPa 0.4 m/s 0.0 mm
07:00 11.4° 1021.1 hPa 0.3 m/s 0.2 mm
13:00 19.5° 1021.3 hPa 0.7 m/s 0.1 mm
19:00 18.3° 1020.6 hPa 0.4 m/s 0.4 mm
FMI Hirlam - 7.5 km EWN WRFDA - 12 km DWD ICON - 7 km GFS - 25 km Basiskaart






























































Updatetijd (Europe/Amsterdam) Resolutie Lengte Stap
FMI Hirlam 14:15, 20:15, 02:15, 08:15 7.5 km 49h 1h
EWN WRFDA 16:30, 22:30, 04:30, 10:30 12 km 73h 1h
DWD ICON 18:00, 00:00, 06:00, 12:00 7 km 75h 1h
GFS 19:45, 01:45, 07:45, 13:45 25 km 237h 3h
30+ mm
25-30 mm
20-25 mm
15-20 mm
10-15 mm
6-10 mm
4-6 mm
2-4 mm
1-2 mm
0.5-1 mm
0.2-0.5 mm
0.1-0.2 mm
30+ mm
25-30 mm
20-25 mm
15-20 mm
10-15 mm
6-10 mm
4-6 mm
2-4 mm
1-2 mm
0.5-1 mm
0.2-0.5 mm
0.1-0.2 mm
Sneeuwval
Natte sneeuw
Hagel
Vorst
30+ mm
25-30 mm
20-25 mm
15-20 mm
10-15 mm
6-10 mm
4-6 mm
2-4 mm
1-2 mm
0.5-1 mm
0.2-0.5 mm
0.1-0.2 mm
Sneeuwval
Natte sneeuw
Hagel
Vorst
Onweer
50 mm
40 mm
30 mm
26 mm
22 mm
18 mm
14 mm
10 mm
9 mm
8 mm
7 mm
6 mm
5 mm
4.5 mm
4 mm
3.5 mm
3 mm
2.5 mm
2 mm
1.5 mm
1 mm
0.8 mm
0.6 mm
0.4 mm
0.2 mm
0.05 mm
35°
30°
25°
20°
15°
10°
-5°
-10°
-15°
-20°
-25°
-30°
-35°
33> m/s
29 m/s
25 m/s
21 m/s
17 m/s
14 m/s
11 m/s
8 m/s
5 m/s
3 m/s
0 m/s
2600 J/kg
2400 J/kg
2200 J/kg
2000 J/kg
1800 J/kg
1600 J/kg
1400 J/kg
1200 J/kg
1000 J/kg
800 J/kg
600 J/kg
400 J/kg
200 J/kg
70 dBZ
65 dBZ
60 dBZ
55 dBZ
50 dBZ
45 dBZ
40 dBZ
35 dBZ
30 dBZ
25 dBZ
20 dBZ
15 dBZ
10 dBZ
5 dBZ
-1 K
-2 K
-3 K
-4 K
-5 K
-6 K
-7 K
-8 K
-9 K
950 m²/s²
900 m²/s²
850 m²/s²
800 m²/s²
750 m²/s²
700 m²/s²
650 m²/s²
600 m²/s²
550 m²/s²
500 m²/s²
450 m²/s²
400 m²/s²
350 m²/s²
300 m²/s²
250 m²/s²
200 m²/s²
150 m²/s²
100 m²/s²
46 m/s
44 m/s
42 m/s
40 m/s
38 m/s
36 m/s
34 m/s
32 m/s
30 m/s
28 m/s